AirNav   Everest Fuels
 
 1077 users online  

PS85 River Hill Heliport
Bloomsburg, Pennsylvania, USA

GOING TO BLOOMSBURG?


FAA INFORMATION EFFECTIVE 18 JUNE 2020

Location

FAA Identifier: PS85
Lat/Long: 40-59-10.3120N 076-25-44.8010W
40-59.171867N 076-25.746683W
40.9861978,-76.4291114
(estimated)
Elevation: 860 ft. / 262 m (estimated)
Variation: 11W (1990)
From city: 1 mile S of BLOOMSBURG, PA
Time zone: UTC -4 (UTC -5 during Standard Time)
Zip code: 17820

Heliport Operations

Heliport use: Private use. Permission required prior to landing
Activation date: 11/1993
Control tower: no
ARTCC: NEW YORK CENTER
FSS: WILLIAMSPORT FLIGHT SERVICE STATION
Attendance: UNATNDD
Wind indicator: lighted
Segmented circle: no
Lights: FOR PERIMETER LGTS CALL 570-784-2121.

Heliport Communications

WX AWOS-3 at 79PN (8 nm W): 118.075 (570-271-8192)
WX AWOS-3 at N79 (11 nm SW): 119.175 (570-672-0389)
WX AWOS-3 at ZER (17 nm S): 127.575 (570-544-2778)
WX AWOS-3 at HZL (20 nm E): 119.975 (570-459-4901)

Nearby radio navigation aids

VOR radial/distance  VOR name  Freq  Var
MIPr111/10.9MILTON VORTAC109.2009W
SEGr068/23.7SELINSGROVE VOR/DME110.4008W
FQMr153/26.3WILLIAMSPORT VOR/DME114.4009W
RAVr028/27.1RAVINE VORTAC114.6011W
LVZr253/37.6WILKES-BARRE VORTAC111.6010W

 
NDB name  Hdg/Dist  Freq  Var  ID
BELLGROVE020/33.532810WBZJ -... --.. .---

Heliport Services

Runway Information

Helipad H1

Dimensions: 60 x 60 ft. / 18 x 18 m
Surface: asphalt/concrete, in good condition
Runway edge lights: PERI
Latitude: 40-59.171867N
Longitude: 076-25.746683W
Elevation: 860.0 ft.
Traffic pattern: leftleft

Heliport Ownership and Management from official FAA records

Ownership: Privately-owned
Owner: PAUL R EYERLY III
114 RIVER HILL DR
BLOOMSBURG, PA 17815
Phone 570-784-2083
Manager: MICHAEL HUNTINGTON
3185 LACKAWANNA AVE
BLOOMSBURG, PA 17815
Phone 570-784-2121

Heliport Operational Statistics

Aircraft based on the field: 1
Helicopters: 1
    

Additional Remarks

FOR CD CTC WILKES-BARRE APCH AT 570-655-2084.

Instrument Procedures

There are no published instrument procedures at PS85.

Some nearby airports with instrument procedures:

N13 - Bloomsburg Municipal Airport (1 nm N)
8N8 - Danville Airport (10 nm W)
N79 - Northumberland County Airport (11 nm SW)
KZER - Schuylkill County/Joe Zerbey Airport (17 nm S)
KHZL - Hazleton Regional Airport (20 nm E)
 
Loc | Ops | Rwys | IFR | FBO | Links
Com | Nav | Svcs | Stats | Notes
Area around PS85 (River Hill Heliport)
 
Road maps at: MapQuest Bing Google
 
Aerial photo
No photo
 
Sectional chart

 
Airport distance calculator
Flying to River Hill Heliport? Find the distance to fly.

From to PS85

Sunrise and sunset
Times for 12-Jul-2020
 Local
(UTC-4)
 Zulu
(UTC)
Morning civil twilight05:1309:13
Sunrise05:4609:46
Sunset20:3700:37
Evening civil twilight21:1001:10

Current date and time
Zulu (UTC)  12-Jul-2020 19:26:04
Local (UTC-4)  12-Jul-2020 15:26:04
 
METAR
KHZL 
20nm E 
121857Z AUTO 20004KT 10SM SCT044 BKN100 27/16 A2983 RMK AO2
KSEG 
22nm SW 
121903Z AUTO 12005KT 10SM SCT036 BKN060 OVC110 23/19 A2975 RMK AO2 RAE01 P0000 T02280189
KIPT 
27nm NW 
121854Z 22006KT 10SM SCT095 29/16 A2971 RMK AO2 SLP056 T02890161 $
K22N 
32nm E 
121904Z AUTO 00000KT 10SM SCT060 SCT080 SCT100 29/17 A2975 RMK AO2
KMUI 
35nm S 
121856Z AUTO 00000KT 10SM SCT060 BKN150 29/18 A2974 RMK AO2 SLP071 T02930181
KAVP 
38nm NE 
121854Z 24005KT 10SM SCT050 BKN065 BKN090 29/16 A2974 RMK AO2 SLP062 T02890161 PNO $
TAF
KIPT 
27nm NW 
121748Z 1218/1318 VRB05KT P6SM SKC FM121900 28006KT P6SM VCSH SCT040 BKN080 FM122300 VRB03KT P6SM SCT080 FM131300 29006KT P6SM SCT250
NOTAMs
Click for the latest NOTAMs
NOTAMs are issued by the DoD/FAA and will open in a separate window not controlled by AirNav.

 

 
 

Would you like to see your business listed on this page?

 If your business provides an interesting product or service to pilots, flight crews, aircraft, or users of the River Hill Heliport, you should consider listing it here.  To start the listing process, click on the button below
 
Add a business
 

Other Pages about River Hill Heliport

Update a link
 
Copyright © AirNav, LLC. All rights reserved. Privacy Policy  Contact